{"data":{"norad_id":67729,"epoch":"2026-09-19T20:59:16.024992Z","epoch_age_seconds":120456,"freshness":"FRESH","line1":"1 67729U 26026J   26262.87449103  .00019963  00000+0  61891-3 0  9996","line2":"2 67729  97.2857 314.6988 0001208  97.2886 262.8494 15.33452151 33888","mean_motion":15.33452151,"eccentricity":0.0001208,"inclination_deg":97.2857,"raan_deg":314.6988,"arg_perigee_deg":97.2886,"mean_anomaly_deg":262.8494,"bstar":0.00061891,"rev_number":3388,"period_min":93.90576674081,"perigee_km":464.69518422107,"apogee_km":466.34861221087,"semimajor_km":6843.658898216,"source":"CELESTRAK","updated_at":"2026-09-20T09:00:43.658050Z"}}